Location: Filler
(36.7551°N, 30.4456°E)
Time: 16:09:22
(UTC+00:00)

CZ-4 R/B - Visible Passes

Search period start: 08 September 2024 00:00
Search period end: 18 September 2024 00:00
Orbit: 677 x 748 km, 98.6° (Epoch: 08 September)

Date Brightness Start Highest point End Pass type
(mag) Time Alt. Az. Time Alt. Az. Time Alt. Az.
08 Sep 3.6 01:43:00 10° N 01:47:39 77° WNW 01:49:00 46° SSW visible
09 Sep 5.4 00:51:31 10° NE 00:55:32 28° E 00:56:17 27° ESE visible
09 Sep 4.9 02:29:31 10° NNW 02:33:18 25° WNW 02:35:22 18° WSW visible
10 Sep 3.7 01:36:49 10° NNE 01:41:30 89° W 01:42:38 52° SSW visible
11 Sep 5.6 00:45:32 10° NE 00:49:21 24° E 00:49:55 24° ESE visible
11 Sep 4.7 02:23:11 10° N 02:27:11 29° WNW 02:29:01 22° WSW visible
12 Sep 3.8 01:30:40 10° NNE 01:35:20 78° ESE 01:36:18 56° S visible
12 Sep 5.8 03:12:19 10° WNW 03:12:35 10° WNW 03:12:50 10° WNW visible
13 Sep 5.9 00:39:35 10° NE 00:43:08 21° E 00:43:33 21° ESE visible
13 Sep 4.5 02:16:51 10° N 02:21:03 34° WNW 02:22:39 27° WSW visible
14 Sep 4.0 01:24:29 10° NNE 01:29:09 66° ESE 01:29:55 56° SSE visible
14 Sep 5.7 03:04:44 10° NW 03:06:29 12° WNW 03:08:14 10° W visible
15 Sep 6.1 00:33:41 10° NE 00:36:53 18° E 00:37:10 18° E visible
15 Sep 4.3 02:10:32 10° N 02:14:54 40° WNW 02:16:16 32° WSW visible
16 Sep 4.3 01:18:19 10° NNE 01:22:56 55° E 01:23:31 52° SE visible
16 Sep 5.6 02:57:56 10° NNW 03:00:22 14° WNW 03:02:36 11° W visible
17 Sep 6.3 00:27:51 10° ENE 00:30:39 15° E 00:30:46 15° E visible
17 Sep 4.1 02:04:14 10° N 02:08:43 47° WNW 02:09:51 39° WSW visible
